FENGYUN 4A (41882 NORAD) Tracking and Keplerian Element Data

This shows tracking and keplerian element data for the satellite.

Feedback or suggestion? Click here.




ElementValue
Catalog41882
NameFENGYUN 4A
Epoch Orbit1769
Epoch Day269.92788286
Epoch Year2021
RAAN284.6456
Inclination0.2399
Eccentricity0.0003814
Argument of Perigee113.527
Mean Anonmoly46.5186
Mean Motion1.00275026
Decay Rate-3.32E-06
L11 41882U 16077A 21269.92788286 -.00000332 00000-0 00000-0 0 9993
L22 41882 0.2399 284.6456 0003814 113.5270 46.5186 1.00275026 17694

Live tracking and technical data element details for FENGYUN 4A (NORAD 41882). FENGYUN 4A can be tracked NOW for your location showing map with azimuth and elevation plus other details from your city location.

Track the satellite on the map from your city or location and see movement details for azimuth, elevation, latitude, longitude, range, height, and movement on the map or in text.







IsCatalogInMostPopularTable: catalog: 41882, numindb: 522
Update: records affected: 1



GetName: 41882 FENGYUN 4A

Hit Count: updated at: Tue, 28 Sep 2021 17:37:55 GMT